Temperature
12 12 12 13 12 11 11 12 14 15 16 18 18 18 17 17 17 17 17 17 17 16 16 16 16 16 16 16 16 16 16 16 16 16 16 16 16 16 16 17 17 17 18 18 18 18 18 18 17
11 12 12 12 11 11 11 13 14 15 17 17 18 17 17 16 16 16 15 16 16 16 16 16 16 16 16 16 16 16 16 16 16 16 16 16 16 16 17 17 17 18 18 18 18 18 18 18 17
11 11 12 10 11 11 12 13 14 16 17 17 16 17 16 16 16 16 15 16 16 16 16 16 16 16 16 16 15 16 16 16 16 16 16 16 16 17 17 18 18 18 18 18 18 18 18 18 17
10 11 11 10 11 11 13 14 14 15 16 16 16 16 16 16 16 16 16 15 16 16 16 16 15 15 16 16 15 16 16 16 16 16 16 16 17 17 18 18 18 18 18 18 18 18 18 17 17
9 10 10 10 11 12 12 14 15 15 15 16 16 15 16 16 17 16 16 15 16 16 15 15 15 15 15 15 15 15 16 16 16 17 17 17 17 18 18 18 18 18 18 18 18 18 17 17 17
9 9 10 10 11 12 12 15 15 14 15 15 16 15 15 16 16 16 16 15 16 16 15 15 15 15 15 15 15 15 16 16 16 17 17 17 17 18 18 18 18 18 18 17 17 17 17 17 17
8 9 10 10 11 11 13 15 15 14 14 15 16 15 15 16 16 16 16 15 15 15 15 15 15 15 15 15 15 15 16 16 16 17 17 17 17 18 18 18 18 17 17 17 17 17 17 17 16
9 8 9 10 10 11 14 15 15 15 15 16 16 15 15 16 16 16 15 15 15 15 15 15 15 15 15 15 15 15 15 16 16 16 17 17 17 17 17 17 17 17 17 17 17 17 16 16 16
8 8 9 10 11 12 14 14 15 16 16 15 16 16 17 16 15 15 15 15 15 15 15 15 15 15 15 15 15 15 15 15 16 16 17 17 17 17 17 17 17 17 17 17 17 16 16 16 16
8 8 9 11 11 12 13 14 14 14 14 14 15 16 16 15 15 15 15 14 15 15 15 15 15 15 15 15 15 15 15 15 15 16 16 17 17 17 17 17 17 17 17 16 16 16 16 16 15
7 8 9 11 12 12 13 14 14 13 13 14 14 15 15 15 15 15 15 15 15 15 15 15 15 15 15 15 15 15 15 15 15 16 16 16 17 17 17 17 17 17 16 16 16 16 15 15 15
7 8 9 10 11 12 12 13 13 13 14 15 15 16 15 15 15 15 15 15 15 15 15 15 15 15 15 15 15 15 15 15 15 16 16 16 16 16 16 16 16 16 16 16 16 15 15 15 15
7 8 9 10 10 11 12 12 12 13 14 15 15 15 15 15 15 15 15 15 15 15 15 15 15 15 15 15 15 15 15 15 16 16 16 16 16 16 16 16 16 16 16 15 15 15 15 14 14
7 8 9 9 10 10 11 11 12 12 13 14 15 15 15 15 15 15 15 15 15 15 15 15 15 15 15 15 15 15 15 15 15 15 16 16 15 15 15 15 15 15 15 15 15 14 14 14 14
7 7 8 9 10 10 11 11 11 12 13 14 14 14 15 15 15 15 15 15 15 15 15 15 15 15 15 15 15 15 15 15 15 15 15 15 15 15 15 15 15 15 14 14 14 14 14 14 14
7 7 7 9 10 10 10 10 11 11 12 12 13 14 14 14 15 15 15 15 15 15 15 15 15 15 15 15 15 15 15 15 15 15 15 15 14 14 14 14 14 14 14 14 14 14 14 14 13
6 6 7 8 9 10 10 10 10 11 11 12 12 13 14 14 14 15 15 15 15 15 15 15 15 15 15 15 15 15 15 15 14 14 14 14 14 14 14 14 14 13 13 13 13 13 13 13 13
6 6 7 8 9 9 9 9 10 10 11 11 12 12 13 14 14 15 15 15 15 15 15 15 15 15 15 15 15 14 14 14 14 14 14 14 14 14 14 14 13 13 13 13 13 13 13 13 13
6 7 7 8 9 9 9 9 10 10 10 11 11 12 13 14 14 15 15 15 15 15 15 15 15 15 15 14 14 14 14 14 14 14 14 14 14 13 13 13 13 13 13 13 13 13 13 13 13
7 7 7 8 9 9 9 9 9 10 10 10 11 12 13 14 14 14 15 15 15 15 15 15 15 14 14 14 14 14 14 14 14 14 14 13 13 13 13 13 13 13 13 13 13 13 13 13 13
7 7 7 8 8 9 9 9 9 10 10 11 11 12 13 14 14 15 15 15 15 15 15 14 14 14 14 14 14 14 14 14 14 14 14 13 13 13 13 13 13 13 13 13 13 13 13 13 13
7 8 8 8 8 8 9 9 9 9 9 10 11 11 13 14 14 15 15 15 15 15 15 15 14 14 14 14 14 14 14 14 14 14 14 14 13 13 13 13 13 13 13 13 13 13 13 13 12
7 8 8 8 8 8 8 8 9 9 9 10 10 11 13 14 14 15 15 15 15 15 15 15 14 14 14 14 14 14 14 14 14 14 14 13 13 13 13 13 13 13 13 13 13 13 13 12 12
7 8 8 8 8 8 8 8 9 9 9 10 10 11 12 13 14 15 15 15 15 15 15 15 14 14 14 14 14 14 14 14 14 13 13 13 13 13 13 13 13 13 13 13 13 12 12 12 12
8 8 8 8 8 8 8 8 9 9 9 9 9 10 12 13 14 14 15 15 15 15 15 15 14 14 14 14 14 14 13 13 14 13 13 13 13 13 13 13 13 13 12 12 12 12 12 11 11
7 8 8 8 8 8 8 8 8 9 8 9 9 10 11 12 13 13 14 14 14 14 14 14 14 14 14 14 13 13 13 13 13 13 13 13 13 12 12 12 12 12 12 12 12 11 11 11 10
8 7 7 7 7 7 8 8 9 9 8 8 9 9 10 11 12 12 13 13 13 13 14 14 14 14 14 13 13 13 13 13 13 13 12 12 12 12 12 12 12 12 12 11 11 11 11 10 10
8 7 6 7 8 8 8 8 8 8 8 7 7 7 9 10 11 12 12 12 13 13 13 13 13 13 13 13 13 12 12 12 12 12 12 12 12 11 11 11 11 11 11 11 11 10 10 9 9
8 8 6 6 7 7 8 8 8 7 7 6 6 7 8 9 10 11 11 11 12 12 12 12 12 12 12 12 12 12 11 11 11 11 11 11 11 11 11 11 11 11 10 10 10 9 9 8 8
7 7 7 7 6 6 6 7 7 5 6 6 6 7 8 8 9 10 10 11 11 11 11 11 11 11 11 11 11 11 11 10 10 10 10 10 10 10 10 10 10 10 10 9 9 8 8 7 6
Wind_Speed
11 6 1 2 2 3 7 7 6 5 5 3 1 2 3 3 4 3 1 8 14 14 18 21 21 20 19 17 17 16 15 15 15 16 18 20 21 21 20 19 19 18 18 18 18 17 16 14 13
7 2 1 3 6 7 8 8 9 9 6 2 2 2 2 1 0 3 6 8 15 15 17 19 21 21 19 18 17 17 16 16 16 16 18 19 20 20 19 18 18 17 17 17 16 15 14 13 12
6 2 3 4 7 10 8 7 11 7 4 2 1 2 1 1 1 3 7 13 13 12 16 19 22 21 19 18 17 17 16 16 16 16 18 18 19 18 18 17 17 16 16 15 15 14 13 12 12
2 1 2 6 12 10 9 6 7 6 3 3 3 1 2 0 2 3 12 14 13 10 15 19 22 20 19 18 17 17 17 16 16 16 17 18 18 17 17 16 15 15 14 14 13 12 12 12 12
1 2 6 9 13 9 9 8 6 8 8 6 6 4 3 3 1 9 14 15 13 10 14 19 21 20 18 17 17 17 17 16 16 16 16 17 17 16 16 15 14 13 13 12 12 11 11 11 11
2 3 8 15 13 11 10 9 5 6 7 7 8 6 3 1 6 11 14 14 12 11 12 18 20 19 18 17 16 17 17 17 16 15 16 16 16 15 15 13 12 12 11 10 10 10 10 10 10
4 5 9 11 12 11 11 7 8 7 8 9 10 8 3 2 5 10 11 12 11 10 10 12 16 17 16 16 16 16 16 16 16 15 15 15 14 14 13 12 11 10 9 9 8 8 8 8 9
4 4 8 8 11 12 8 6 7 9 8 7 8 9 7 7 8 10 10 10 11 10 9 9 13 14 13 13 15 15 16 16 16 15 14 14 13 12 12 10 10 9 8 7 6 6 6 7 7
2 7 12 11 11 9 6 6 4 4 6 5 5 6 7 13 12 12 9 8 10 10 9 9 10 11 12 12 13 14 15 15 15 14 14 12 11 10 9 8 8 7 6 5 4 4 4 5 6
5 9 12 7 7 5 5 6 4 4 6 5 5 3 10 16 16 14 13 12 11 11 10 9 9 10 11 10 10 11 11 12 13 12 12 10 9 8 7 7 6 5 4 3 3 3 4 4 4
5 8 6 6 7 6 6 5 2 5 7 7 10 12 16 15 16 16 14 12 11 10 9 9 9 10 9 8 9 8 9 10 11 12 11 10 8 6 6 5 4 3 3 2 2 2 3 3 3
5 7 7 6 4 6 8 4 3 5 6 5 8 13 18 18 17 18 16 12 9 9 8 8 8 8 8 9 8 8 8 8 8 10 11 9 6 5 5 4 4 3 3 2 1 0 1 2 3
7 6 7 7 5 7 7 7 5 4 4 1 3 11 18 18 16 14 15 14 11 10 9 8 8 8 8 7 6 7 7 8 10 11 11 11 7 5 5 4 5 5 4 4 3 2 2 2 3
5 7 8 7 7 6 7 6 3 4 3 0 5 10 13 15 15 13 13 14 14 14 12 11 10 8 8 7 6 6 7 8 9 10 12 13 10 8 6 5 5 5 6 5 4 3 2 2 2
3 4 7 8 7 4 3 7 6 4 2 1 4 8 9 10 13 16 16 16 15 14 14 13 12 10 9 8 7 7 8 9 8 10 13 14 13 11 8 5 4 6 7 6 4 3 2 2 2
2 3 5 5 7 4 6 9 4 1 0 1 1 3 5 7 9 12 14 14 14 13 13 13 12 12 11 8 7 6 8 8 9 10 12 14 14 13 9 5 5 7 7 5 3 2 2 2 2
3 4 5 2 4 5 5 5 1 2 0 1 1 0 2 4 5 7 10 12 13 13 12 11 11 12 10 8 6 5 6 7 8 9 10 12 14 14 11 7 6 7 5 3 3 2 2 2 3
4 4 4 3 1 5 4 2 1 2 1 2 2 2 1 3 5 6 8 9 10 11 12 11 10 10 9 7 5 4 4 4 6 7 9 11 12 13 11 7 6 7 3 3 3 3 2 2 2
3 3 3 1 1 3 4 3 1 1 1 3 4 3 2 2 2 3 5 7 7 8 10 12 11 10 8 7 7 7 7 6 5 5 9 10 10 11 9 5 5 5 4 4 3 2 2 2 1
4 4 3 2 1 2 2 2 2 3 3 4 5 6 5 3 3 2 3 6 7 9 11 11 11 11 11 9 7 5 5 4 4 4 5 8 9 9 8 5 5 4 4 3 3 3 2 1 1
5 5 5 4 3 4 3 1 3 3 3 4 5 5 5 5 5 4 3 4 6 8 9 10 11 10 11 10 6 4 3 2 3 4 4 5 8 8 8 7 5 4 4 4 3 3 3 2 1
2 5 7 6 5 2 2 0 3 3 3 5 5 6 6 5 4 4 3 3 5 6 5 6 7 8 8 10 9 9 8 7 7 5 5 4 6 6 7 7 6 4 3 3 3 2 2 3 2
2 5 7 6 4 3 2 2 4 1 3 6 6 6 6 5 5 4 3 3 2 2 3 3 4 5 6 7 9 9 8 6 4 4 6 5 4 4 5 6 5 4 3 3 3 2 2 2 2
4 7 7 5 3 2 1 2 3 2 3 4 4 4 5 4 3 3 1 1 1 3 3 3 3 3 3 5 6 8 8 7 7 6 6 5 3 3 4 5 5 4 3 3 3 2 2 1 2
2 5 4 3 2 1 0 2 3 5 4 3 3 2 2 2 1 1 2 2 2 2 2 2 3 2 2 2 4 5 7 8 9 8 8 7 4 3 4 4 4 4 4 3 3 2 1 1 1
1 2 3 4 4 1 2 0 3 5 5 4 3 3 4 3 2 2 2 2 2 3 3 2 2 2 1 1 1 1 3 4 4 6 6 7 5 5 5 5 5 5 4 4 3 2 1 1 1
2 1 1 5 4 4 1 2 4 6 9 9 8 9 7 6 6 5 5 5 4 4 3 2 2 2 2 2 2 1 2 3 4 4 5 5 5 5 6 6 5 4 4 4 3 2 1 1 1
2 3 4 4 4 4 2 2 3 5 6 7 8 9 8 8 9 8 7 7 6 4 4 4 3 2 2 2 2 2 2 3 4 5 5 6 6 6 7 6 5 4 3 3 3 2 2 2 1
3 3 4 4 4 5 3 1 3 4 2 3 6 7 8 9 8 8 8 7 6 6 6 5 4 3 2 2 2 3 2 3 4 5 5 5 6 7 7 6 6 5 4 3 3 2 2 2 1
1 2 3 4 2 3 4 1 6 2 2 4 6 7 7 8 7 8 8 8 8 8 6 5 4 3 2 0 1 2 2 3 4 5 5 5 5 5 5 5 5 5 4 3 3 2 2 2 2
Wind_Direction
305 313 60 76 118 185 218 221 203 197 199 181 176 150 146 165 186 228 84 140 138 145 152 151 150 147 144 141 140 136 129 125 123 122 122 122 120 118 116 115 114 112 112 112 110 106 102 97 94
303 295 80 129 186 210 224 214 210 209 197 135 70 78 80 125 120 120 141 147 142 145 149 150 149 147 144 144 143 138 133 129 127 126 124 122 120 118 118 116 114 113 112 111 110 106 100 96 95
303 246 190 178 202 208 221 209 213 216 195 151 62 24 95 177 147 155 150 147 139 141 146 151 148 147 146 146 146 141 135 132 131 129 127 124 123 121 119 117 115 114 113 113 111 105 99 94 93
317 171 183 208 218 214 215 214 194 184 216 200 141 340 307 283 198 165 144 146 139 137 143 150 147 147 148 149 148 143 139 135 134 132 130 128 126 124 121 120 118 116 116 115 112 106 98 92 93
117 195 207 223 225 227 225 231 194 177 194 200 164 182 273 316 128 139 145 147 143 139 143 149 148 149 149 151 150 146 142 140 139 137 134 132 130 128 127 125 123 120 118 117 113 106 98 92 93
201 203 215 219 222 231 234 222 207 196 203 202 173 178 239 313 124 141 149 150 146 143 144 150 150 150 151 152 152 150 146 144 143 141 139 137 136 135 133 131 128 125 122 119 113 105 97 93 92
204 206 223 218 221 230 234 210 200 193 193 204 173 167 193 194 144 141 149 147 144 142 141 144 146 148 151 153 155 154 150 148 148 146 143 140 140 140 139 137 135 131 127 121 113 104 95 89 88
207 208 222 214 218 231 230 206 200 188 199 192 167 168 188 181 146 138 146 149 146 144 142 139 140 142 146 153 156 156 153 151 150 147 143 142 143 144 143 142 140 138 133 127 117 104 91 81 77
191 222 222 207 208 224 218 212 209 186 167 178 194 192 183 148 142 141 144 153 155 155 149 144 140 140 143 149 156 157 156 155 150 146 146 143 143 144 145 147 146 145 141 133 119 99 80 71 66
201 225 228 215 205 219 226 217 198 154 173 181 196 192 150 152 152 155 160 167 166 166 162 154 148 145 145 148 148 152 152 150 147 148 149 148 148 148 149 155 157 155 149 133 108 76 60 57 49
214 230 235 235 231 239 245 231 213 175 194 187 191 181 161 163 161 162 168 174 173 171 168 162 156 152 150 146 150 151 149 147 148 154 157 154 152 151 150 156 163 163 157 132 80 57 45 30 15
246 253 242 243 241 240 246 237 226 214 217 213 205 178 165 170 172 168 169 174 174 170 174 170 162 157 155 154 160 160 158 158 160 166 166 162 161 166 170 175 184 187 189 187 184 153 342 337 332
237 264 253 253 258 251 247 233 224 247 288 267 162 170 172 174 177 174 168 168 178 183 181 183 172 168 161 156 163 171 173 174 174 176 179 179 177 183 188 194 199 206 208 207 207 220 278 305 308
228 246 259 252 249 247 238 245 219 257 316 82 158 167 177 178 174 170 172 171 181 187 191 189 181 177 169 168 171 178 184 183 181 186 191 192 193 191 189 194 202 213 216 215 213 221 243 272 283
246 264 263 234 222 232 217 245 234 279 314 192 183 172 172 178 176 178 179 177 184 188 189 189 187 182 180 178 179 184 189 188 191 197 199 199 200 198 193 192 204 216 217 215 217 226 229 247 253
197 228 241 225 191 191 189 227 232 330 241 184 159 162 170 177 183 183 181 181 185 188 188 189 189 186 187 185 183 190 194 194 199 200 201 203 203 200 191 191 206 211 202 197 192 193 211 236 245
181 209 213 226 177 162 186 219 241 15 79 245 287 229 178 179 187 185 186 186 186 186 186 188 190 185 187 188 187 193 198 204 204 199 199 204 202 198 191 195 203 195 184 185 188 189 195 226 250
188 196 191 189 154 155 180 221 5 18 15 276 279 271 237 203 205 195 194 188 187 187 188 187 193 189 184 179 181 194 208 217 210 202 201 202 201 196 191 191 191 180 167 176 183 196 199 217 245
208 184 158 150 109 146 182 212 258 327 296 262 276 279 270 258 255 199 195 183 181 190 191 189 193 193 186 186 190 196 206 208 208 207 204 202 199 193 188 184 178 170 174 183 185 184 201 228 208
221 182 150 77 68 110 153 239 264 242 231 244 254 263 263 272 276 229 191 183 189 197 201 197 200 196 195 198 196 194 189 197 201 196 197 200 197 191 187 178 175 169 170 175 180 176 176 199 164
213 183 155 135 97 66 98 296 250 253 243 252 246 250 249 243 252 253 224 203 198 203 204 205 202 200 196 192 180 165 157 145 177 193 194 196 193 187 179 176 170 168 169 178 185 179 183 207 214
197 169 149 141 124 101 116 214 267 243 254 258 258 259 260 259 260 258 241 225 211 206 192 200 204 203 200 192 187 187 194 202 199 188 183 175 170 166 166 165 160 153 153 158 167 165 174 180 212
161 137 128 123 106 86 72 92 302 287 250 258 255 256 263 265 262 266 259 229 198 166 156 174 189 193 194 195 195 198 203 199 166 156 163 164 143 139 142 143 137 136 132 137 141 147 160 176 193
132 102 83 63 74 76 115 121 305 293 252 269 266 263 264 262 257 275 306 106 101 98 107 121 150 168 173 188 195 199 201 186 169 169 169 160 136 117 121 124 120 116 116 118 123 129 148 167 193
93 100 95 74 63 70 92 114 284 311 300 267 269 296 313 314 311 330 348 16 38 78 91 106 131 145 146 187 204 208 205 191 186 176 173 163 158 156 150 130 120 112 108 108 109 115 129 151 198
90 85 132 140 142 89 74 107 299 329 354 19 40 40 36 30 36 36 22 38 38 49 61 68 81 91 91 128 181 200 189 183 179 170 165 168 163 153 143 127 119 118 117 113 111 123 132 133 166
103 76 103 108 94 85 25 338 352 21 26 32 42 47 39 33 38 38 34 39 39 45 45 61 79 73 69 83 96 97 120 141 147 146 143 141 134 136 136 128 125 120 117 118 121 126 126 128 147
100 133 88 89 112 98 49 16 342 344 8 23 33 35 31 33 37 36 34 32 31 31 28 34 48 53 49 65 87 101 106 120 129 130 133 134 133 130 131 128 127 125 120 118 119 123 132 143 163
23 54 81 83 93 125 126 324 339 291 323 48 42 40 39 40 36 32 29 28 31 32 31 27 24 26 28 44 77 100 108 116 123 127 132 136 135 137 139 140 139 134 127 121 121 131 145 160 165
15 80 112 112 85 91 116 300 340 339 63 81 61 45 41 42 36 31 27 25 24 22 18 15 8 2 345 352 112 132 134 129 131 134 134 132 131 130 133 134 132 131 127 123 130 147 159 173 175
Height
1500 1502 1504 1506 1509 1513 1511 1504 1498 1497 1497 1496 1496 1497 1498 1500 1503 1506 1499 1498 1503 1508 1513 1517 1520 1523 1525 1527 1528 1530 1532 1533 1535 1536 1538 1540 1542 1544 1546 1548 1549 1550 1552 1553 1554 1555 1556 1556 1557
1498 1500 1503 1503 1506 1510 1507 1497 1495 1492 1492 1493 1495 1495 1497 1498 1499 1498 1497 1499 1504 1508 1513 1517 1520 1523 1525 1527 1529 1531 1532 1534 1536 1537 1539 1541 1543 1545 1547 1549 1550 1552 1553 1555 1556 1557 1558 1558 1559
1495 1497 1500 1499 1500 1500 1499 1491 1490 1489 1490 1491 1494 1495 1497 1498 1498 1498 1498 1500 1505 1509 1513 1517 1520 1523 1525 1527 1529 1531 1533 1535 1537 1538 1540 1542 1544 1546 1548 1550 1552 1554 1555 1557 1558 1559 1559 1560 1560
1493 1495 1496 1497 1493 1491 1490 1486 1486 1488 1490 1491 1493 1496 1497 1498 1497 1498 1499 1502 1506 1510 1514 1517 1521 1523 1526 1528 1530 1532 1534 1536 1537 1539 1541 1543 1545 1548 1550 1552 1553 1555 1557 1558 1559 1560 1561 1561 1562
1491 1492 1493 1491 1488 1486 1485 1484 1484 1486 1488 1489 1491 1494 1496 1497 1496 1498 1500 1503 1507 1510 1514 1518 1521 1524 1526 1528 1530 1533 1534 1536 1538 1540 1542 1544 1546 1549 1551 1553 1555 1557 1558 1559 1560 1561 1562 1563 1563
1489 1488 1488 1486 1486 1483 1482 1482 1483 1484 1486 1488 1490 1493 1495 1497 1497 1498 1501 1504 1508 1511 1515 1518 1521 1524 1526 1529 1531 1533 1535 1537 1539 1541 1544 1546 1548 1550 1552 1554 1556 1558 1559 1560 1561 1562 1563 1563 1564
1486 1486 1483 1482 1483 1482 1479 1479 1482 1482 1484 1486 1487 1491 1493 1496 1497 1499 1502 1505 1509 1512 1515 1519 1521 1524 1527 1529 1532 1534 1536 1538 1540 1542 1545 1547 1549 1551 1553 1555 1557 1558 1560 1561 1562 1562 1563 1564 1564
1482 1484 1481 1480 1480 1479 1476 1477 1477 1479 1480 1483 1485 1487 1490 1494 1496 1498 1503 1506 1509 1513 1516 1519 1522 1524 1527 1530 1532 1535 1537 1539 1541 1543 1545 1547 1549 1552 1554 1556 1557 1558 1560 1561 1562 1562 1563 1564 1564
1480 1482 1476 1475 1476 1475 1474 1475 1475 1476 1477 1479 1481 1483 1486 1490 1494 1497 1501 1506 1509 1513 1516 1519 1522 1524 1527 1530 1532 1535 1537 1540 1542 1544 1546 1548 1550 1552 1554 1555 1557 1558 1559 1561 1562 1562 1563 1564 1564
1478 1476 1470 1469 1471 1472 1472 1472 1472 1474 1476 1476 1479 1482 1485 1487 1491 1495 1499 1503 1507 1511 1515 1518 1521 1524 1527 1530 1532 1535 1537 1540 1542 1544 1546 1548 1550 1552 1553 1555 1556 1558 1559 1560 1561 1562 1563 1563 1564
1473 1471 1469 1468 1469 1470 1471 1470 1471 1472 1474 1473 1475 1478 1482 1485 1489 1492 1498 1501 1505 1510 1514 1518 1521 1524 1527 1529 1532 1534 1537 1539 1542 1544 1546 1548 1550 1551 1553 1555 1556 1557 1558 1560 1561 1561 1562 1563 1563
1471 1468 1468 1467 1468 1469 1470 1470 1471 1471 1471 1471 1472 1474 1478 1483 1486 1489 1494 1500 1504 1508 1512 1516 1520 1523 1526 1529 1532 1534 1536 1539 1541 1543 1546 1548 1549 1551 1553 1554 1555 1556 1558 1559 1560 1561 1561 1562 1562
1469 1467 1467 1467 1467 1468 1469 1469 1470 1469 1469 1469 1471 1474 1476 1479 1484 1487 1492 1497 1502 1507 1511 1515 1518 1521 1525 1528 1530 1533 1536 1538 1540 1543 1545 1547 1549 1550 1552 1553 1554 1555 1556 1557 1558 1559 1560 1561 1561
1465 1466 1465 1465 1465 1466 1468 1467 1469 1467 1467 1468 1469 1472 1475 1478 1481 1486 1490 1493 1498 1504 1508 1512 1516 1520 1523 1526 1529 1532 1535 1537 1539 1541 1544 1546 1547 1549 1550 1551 1553 1554 1555 1556 1557 1558 1558 1559 1559
1465 1466 1465 1463 1463 1464 1467 1468 1466 1466 1467 1467 1469 1471 1474 1476 1479 1482 1487 1491 1496 1501 1506 1509 1513 1518 1521 1525 1527 1531 1533 1536 1538 1540 1542 1544 1546 1547 1548 1550 1551 1552 1553 1554 1555 1556 1556 1557 1557
1464 1466 1466 1460 1460 1463 1469 1467 1464 1466 1467 1468 1468 1470 1473 1476 1479 1481 1486 1490 1495 1499 1502 1507 1511 1515 1519 1522 1526 1529 1531 1533 1536 1538 1540 1542 1543 1545 1546 1547 1549 1550 1551 1552 1553 1554 1554 1555 1555
1465 1466 1463 1460 1458 1460 1465 1465 1464 1465 1466 1467 1468 1470 1472 1475 1478 1481 1484 1488 1492 1496 1500 1505 1509 1512 1516 1519 1523 1526 1528 1531 1533 1535 1537 1539 1541 1542 1544 1545 1547 1548 1549 1550 1551 1552 1552 1552 1552
1464 1464 1461 1460 1459 1460 1464 1464 1464 1464 1466 1468 1469 1470 1471 1473 1477 1480 1483 1487 1491 1494 1498 1502 1507 1510 1514 1516 1519 1522 1525 1527 1530 1532 1535 1537 1538 1540 1541 1542 1544 1545 1546 1547 1548 1549 1549 1549 1549
1461 1461 1460 1460 1459 1461 1463 1464 1464 1465 1466 1468 1468 1469 1470 1473 1476 1479 1482 1486 1489 1493 1496 1499 1503 1506 1510 1513 1516 1518 1521 1524 1526 1529 1531 1533 1535 1537 1538 1540 1541 1542 1544 1545 1546 1546 1546 1546 1546
1461 1461 1461 1461 1459 1461 1464 1465 1464 1464 1465 1466 1468 1468 1470 1472 1475 1477 1480 1484 1486 1489 1493 1496 1499 1503 1506 1509 1512 1515 1518 1520 1523 1525 1528 1529 1531 1534 1535 1537 1538 1540 1541 1542 1543 1543 1543 1543 1543
1459 1459 1460 1461 1461 1462 1465 1467 1466 1464 1464 1465 1466 1467 1468 1470 1472 1475 1478 1481 1484 1487 1490 1493 1497 1500 1503 1506 1509 1512 1514 1516 1519 1521 1524 1526 1528 1530 1532 1533 1535 1536 1537 1538 1539 1539 1539 1539 1539
1458 1456 1458 1460 1463 1467 1468 1471 1467 1465 1464 1464 1464 1465 1466 1468 1471 1473 1476 1479 1482 1485 1488 1491 1494 1496 1499 1502 1504 1507 1509 1511 1514 1517 1519 1522 1524 1526 1528 1530 1531 1533 1534 1535 1535 1536 1536 1536 1535
1457 1455 1457 1460 1463 1468 1470 1473 1469 1465 1464 1463 1462 1463 1464 1467 1470 1472 1474 1477 1480 1483 1486 1489 1491 1493 1496 1499 1501 1504 1506 1508 1510 1513 1515 1518 1520 1522 1524 1526 1528 1529 1530 1531 1531 1532 1532 1531 1531
1456 1457 1459 1463 1465 1472 1472 1474 1472 1467 1464 1462 1461 1462 1463 1466 1468 1471 1473 1476 1478 1481 1484 1487 1489 1491 1493 1496 1497 1500 1502 1504 1506 1508 1511 1513 1516 1518 1520 1522 1523 1525 1526 1527 1527 1527 1527 1527 1526
1458 1460 1467 1470 1472 1474 1473 1473 1473 1466 1464 1463 1461 1462 1463 1465 1467 1469 1472 1475 1477 1480 1482 1485 1487 1489 1491 1493 1495 1496 1498 1500 1502 1504 1507 1509 1511 1514 1516 1518 1520 1521 1522 1522 1523 1523 1523 1522 1521
1460 1461 1466 1469 1473 1476 1474 1475 1473 1467 1464 1462 1462 1462 1463 1465 1467 1469 1471 1474 1476 1479 1481 1483 1485 1487 1489 1491 1492 1494 1495 1497 1498 1500 1503 1505 1508 1510 1512 1514 1516 1517 1518 1518 1518 1518 1518 1517 1516
1460 1464 1464 1470 1474 1477 1477 1475 1470 1467 1466 1466 1465 1465 1466 1466 1467 1469 1471 1474 1476 1478 1480 1482 1483 1485 1487 1488 1489 1490 1492 1493 1495 1496 1499 1501 1503 1506 1508 1510 1511 1512 1513 1513 1513 1513 1512 1512 1511
1461 1463 1468 1471 1473 1478 1478 1479 1482 1475 1473 1471 1470 1469 1469 1469 1469 1471 1472 1474 1476 1478 1479 1480 1482 1483 1484 1485 1486 1487 1488 1490 1491 1493 1495 1497 1499 1501 1503 1505 1507 1508 1508 1508 1508 1507 1507 1506 1506
1464 1465 1470 1476 1474 1479 1482 1486 1481 1480 1477 1476 1474 1473 1472 1471 1472 1473 1474 1475 1477 1478 1479 1479 1480 1481 1482 1483 1484 1484 1486 1487 1488 1490 1491 1494 1496 1497 1499 1501 1502 1503 1503 1503 1503 1502 1502 1501 1501
1465 1466 1468 1473 1480 1484 1487 1491 1481 1480 1478 1478 1477 1476 1475 1475 1475 1476 1476 1477 1477 1478 1478 1479 1479 1480 1480 1481 1481 1482 1483 1484 1485 1487 1488 1490 1492 1493 1495 1496 1497 1498 1498 1498 1497 1497 1496 1496 1496